This is the latest recevied weather packets stored in our database for station/object DOUGLAS. If no packets are shown the sender has not sent any weather packets the latest 10 day(s).
| Time | Temp. | Humidity | Pressure | Rain* | Wind** | Luminosity | Snow |
|---|---|---|---|---|---|---|---|
| 1788229803 | 13.89° C | 99% | 0 hPa | - | - | - | - |
| 1788229203 | 14.44° C | 98% | 0 hPa | - | - | - | - |
| 1788228604 | 15° C | 96% | 0 hPa | - | - | - | - |
| 1788228004 | 15.56° C | 93% | 0 hPa | - | - | - | - |
| 1788227403 | 15.56° C | 92% | 0 hPa | - | - | - | - |
| 1788226803 | 16.67° C | 88% | 0 hPa | - | - | - | - |
| 1788226203 | 16.67° C | 86% | 0 hPa | - | - | - | - |
| 1788225603 | 17.22° C | 84% | 0 hPa | - | - | - | - |
| 1788225003 | 17.78° C | 82% | 0 hPa | - | - | - | - |
| 1788224404 | 17.78° C | 81% | 0 hPa | - | - | - | - |
| 1788223803 | 18.33° C | 80% | 0 hPa | - | - | - | - |
| 1788223202 | 18.89° C | 78% | 0 hPa | - | - | - | - |
| 1788222603 | 18.89° C | 77% | 0 hPa | - | - | - | - |
| 1788222003 | 18.89° C | 74% | 0 hPa | - | - | - | - |
| 1788221403 | 18.89° C | 73% | 0 hPa | - | - | - | - |
| 1788220803 | 20° C | 71% | 0 hPa | - | - | - | - |
| 1788220203 | 20° C | 70% | 0 hPa | - | - | - | - |
| 1788219603 | 20.56° C | 68% | 0 hPa | - | - | - | - |
| 1788219002 | 20° C | 70% | 0 hPa | - | - | - | - |
| 1788218403 | 21.11° C | 68% | 0 hPa | - | - | - | - |
| 1788217803 | 21.11° C | 66% | 0 hPa | - | - | - | - |
| 1788217203 | 21.67° C | 65% | 0 hPa | - | - | - | - |
| 1788216603 | 22.22° C | 64% | 0 hPa | - | - | - | - |
| 1788216021 | 21.67° C | 65% | 0 hPa | - | - | - | - |
| 1788215409 | 22.22° C | 63% | 0 hPa | - | - | - | - |
* Rain since midnight (hover to see other rain measurements)
** Current wind speed in m/s (hover to see current wind gust speed)